RH
44 48 58 66 71 75 82 82 91 98 97 99 95 97 95 85 86 90 94 92 94 91 81 82 77 73 81 86 80 82 87 83 84 85 83 78 75 79 78 74 75 79 81 83 80 78 76 73 70 70 72 70 61 48 45 46 46 47 45 44 41 36 33 31 30 32 40 48 52 56 61 62 64 63 59 58 61 69 75 77 78 76 74 71 71 73 73 73 74 75 75 76 77 77 76 74 76
49 63 77 87 87 88 90 85 95 101 98 99 95 98 95 88 89 90 93 92 96 91 81 81 75 73 79 81 75 76 85 91 86 81 86 80 78 83 77 72 72 77 78 78 78 76 75 70 70 73 73 72 63 49 46 47 47 47 45 42 37 34 32 31 35 44 54 59 62 65 68 67 65 62 58 58 60 67 72 73 74 74 74 74 76 79 78 76 76 76 76 76 76 76 76 76 75
61 76 81 87 88 89 92 91 99 100 99 100 96 96 93 94 91 87 90 88 93 87 81 80 75 76 77 81 82 82 90 98 88 81 92 84 78 84 78 73 71 76 77 76 78 76 73 70 71 74 73 72 63 49 45 47 46 46 43 40 37 34 34 38 45 55 61 64 66 68 69 65 61 61 63 64 64 66 67 70 72 75 78 78 77 78 79 79 80 80 78 76 75 76 77 76 76
78 84 84 86 88 91 96 98 99 99 100 99 97 95 90 93 89 89 90 86 90 85 82 80 81 83 80 88 86 87 96 100 94 82 88 83 73 78 78 74 74 77 77 76 77 74 70 69 69 71 72 69 59 48 45 48 47 46 45 41 37 36 42 51 55 56 60 63 65 66 67 64 62 64 66 67 68 68 70 73 75 78 79 79 78 76 79 81 81 80 77 76 74 75 77 78 78
87 87 88 86 90 93 98 100 98 99 98 97 98 93 91 92 89 92 90 87 89 83 81 79 86 87 81 87 83 88 98 99 99 83 76 78 71 73 76 75 75 76 76 73 72 69 67 68 67 69 70 67 59 53 53 52 49 49 45 40 39 46 57 62 59 57 58 60 63 67 67 66 67 67 67 68 71 73 75 77 77 79 78 79 79 77 80 79 77 76 75 75 74 76 77 77 78
86 86 88 88 94 93 96 100 98 99 92 91 97 94 94 92 90 93 91 89 87 81 78 78 84 86 86 91 86 90 97 93 95 83 70 73 72 73 75 75 75 74 73 69 67 64 65 70 70 71 71 68 65 64 65 59 51 47 44 46 54 63 66 64 61 59 59 60 66 71 71 72 74 73 70 71 75 76 77 78 78 79 79 79 79 79 78 75 73 73 73 73 73 76 78 77 78
85 86 91 93 96 93 97 100 97 99 89 87 94 93 92 91 90 91 89 86 86 83 80 82 80 83 93 92 90 93 93 87 86 78 68 70 71 72 73 72 73 72 71 68 64 62 67 73 73 76 73 70 70 72 72 60 49 48 54 63 70 71 68 67 64 61 60 63 70 74 75 76 76 77 74 75 77 77 77 77 78 80 79 79 79 79 75 72 71 71 72 72 73 77 79 79 79
87 89 91 94 98 96 99 99 95 95 90 86 89 89 89 91 89 87 88 87 88 87 84 84 76 83 94 87 93 98 90 84 79 74 68 69 70 70 69 68 70 70 69 67 63 65 72 74 76 79 74 72 75 75 70 57 54 62 70 74 73 71 69 68 67 66 64 67 74 77 78 78 77 76 76 77 78 77 76 76 78 80 79 79 78 76 73 71 71 72 73 74 76 78 78 78 79
90 92 89 93 99 98 98 97 94 91 89 87 88 89 89 90 87 85 89 91 88 88 89 82 72 85 94 88 98 98 88 83 76 72 67 66 68 67 65 65 64 63 67 65 62 67 74 76 78 78 75 75 75 75 65 55 64 73 76 75 73 73 71 70 70 69 69 70 74 78 80 80 79 77 78 78 77 77 76 77 78 79 79 78 78 75 73 71 73 75 76 75 76 76 76 76 77
90 92 89 96 99 99 99 95 95 93 90 89 90 91 90 89 86 85 87 90 87 87 88 79 76 87 93 93 100 94 84 81 74 72 67 66 66 63 65 64 60 57 62 60 58 66 73 77 77 76 78 77 75 73 59 55 68 74 73 73 74 74 73 75 73 72 72 73 74 78 81 80 79 79 80 77 76 78 79 78 78 79 80 80 79 76 72 71 74 76 76 76 76 74 75 75 76
91 91 88 97 99 99 100 96 97 95 91 92 93 91 94 91 87 87 85 87 85 83 82 79 86 90 92 96 100 92 80 79 74 71 68 66 65 64 66 63 58 54 55 53 54 65 73 77 75 75 78 76 72 65 53 58 71 71 69 69 72 73 74 76 74 74 76 76 75 77 79 78 77 78 79 76 78 81 81 80 79 80 80 79 78 74 71 72 75 75 75 75 75 75 76 76 76
94 95 91 98 100 98 99 97 97 93 92 94 92 92 94 90 87 89 87 87 82 79 77 77 85 86 91 96 99 95 84 80 73 69 69 67 66 66 67 61 55 52 52 54 58 67 74 76 73 74 77 72 64 56 55 65 72 69 67 67 70 74 75 75 72 73 78 78 76 76 77 77 74 77 79 77 80 81 81 80 80 80 78 77 75 72 73 75 75 74 74 73 73 74 75 76 74
95 97 96 99 99 98 99 98 95 91 94 96 95 95 91 89 90 88 85 85 82 80 74 73 79 81 90 97 98 97 91 81 70 70 71 67 66 68 68 60 54 54 55 60 65 72 73 70 67 71 73 66 60 60 66 71 71 70 69 70 73 76 75 72 71 72 75 77 76 75 77 76 73 76 79 78 79 78 78 78 78 77 75 75 73 72 74 76 76 75 76 74 73 71 72 75 74
91 90 93 99 99 98 99 98 95 94 98 96 96 95 91 93 91 85 83 86 85 80 73 73 77 80 93 99 97 99 93 81 72 73 70 66 67 68 67 61 58 58 62 67 71 71 66 64 65 69 70 68 69 72 74 72 70 71 71 74 76 75 72 70 72 71 73 76 76 76 77 76 73 73 76 78 78 76 74 75 76 74 75 75 73 72 74 77 77 78 78 76 74 70 71 75 76
89 86 91 99 100 99 96 94 92 95 99 92 93 95 94 96 88 85 84 86 86 78 75 77 74 78 93 95 95 98 89 82 80 75 70 70 71 69 66 64 62 62 68 70 67 62 60 65 69 73 75 75 76 74 73 72 72 74 74 77 76 74 72 71 72 72 75 78 78 78 77 76 73 69 71 77 79 76 73 75 75 73 74 74 73 69 70 76 78 79 77 76 76 72 72 75 75
88 87 95 100 99 100 93 89 90 95 97 91 93 92 92 95 86 86 86 81 82 77 75 76 71 72 83 85 90 91 83 88 86 74 72 75 76 72 67 65 66 69 69 62 57 58 62 67 69 74 78 77 76 74 72 73 77 78 77 77 74 72 73 72 73 74 77 78 77 78 78 76 73 69 69 75 77 73 72 74 74 73 73 73 72 68 65 71 76 78 76 75 76 75 76 76 75
88 90 99 100 98 100 91 85 89 93 94 93 96 90 90 95 88 88 87 82 82 78 74 74 72 70 77 82 83 82 83 94 87 73 75 78 76 73 71 69 69 68 60 53 58 65 66 66 68 74 77 76 75 74 72 75 81 82 79 77 73 73 75 75 77 78 78 78 77 78 79 75 73 71 71 74 74 72 72 72 73 74 74 72 72 69 63 66 75 78 77 75 76 78 78 78 77
90 94 99 99 97 94 84 78 79 83 90 93 96 89 88 96 93 89 87 85 82 79 75 73 76 74 78 81 78 82 89 96 88 79 82 79 74 71 69 66 60 52 49 58 68 70 70 68 70 73 73 73 73 73 74 79 84 82 78 76 74 75 77 78 79 80 79 77 77 77 76 73 73 74 74 75 72 71 72 71 71 72 72 71 71 69 63 64 73 79 79 77 77 78 77 79 79
88 94 99 98 92 83 73 72 74 79 89 92 94 89 85 92 91 87 89 91 86 86 83 75 78 79 80 81 80 87 92 93 90 85 85 79 69 60 52 49 44 40 49 66 73 74 73 70 70 70 69 69 71 72 75 81 83 80 77 75 75 75 76 78 78 79 78 76 76 75 74 74 76 76 76 75 71 71 72 72 71 70 70 70 69 68 64 63 69 76 79 78 78 77 75 77 77
82 88 98 93 81 74 68 68 70 76 86 92 96 90 85 89 87 86 91 94 91 92 89 77 79 83 82 84 84 89 90 90 91 88 85 78 63 47 38 36 36 39 51 64 72 75 72 68 68 66 66 66 69 72 75 80 80 77 75 75 76 74 74 77 77 77 77 75 73 72 73 75 76 76 76 74 71 71 72 73 73 71 68 66 64 63 63 62 65 74 79 77 75 75 75 76 75
78 83 89 79 69 70 66 64 69 75 84 92 96 91 88 89 87 88 88 92 95 91 83 75 78 82 83 85 85 87 88 90 91 88 86 77 56 40 35 34 34 42 53 60 66 70 68 67 65 64 66 66 67 71 74 75 73 72 72 74 74 71 71 72 73 72 71 71 71 71 72 73 74 73 75 74 73 72 72 72 72 68 62 59 59 61 63 65 68 75 79 78 77 76 77 77 76
74 76 74 66 62 67 66 62 71 79 86 92 93 92 91 89 89 89 84 89 95 88 79 73 74 78 82 84 84 87 87 89 90 85 84 73 50 38 37 38 43 52 56 59 62 66 68 67 64 63 66 67 67 70 73 73 70 70 70 70 68 65 67 68 68 67 65 66 67 68 68 68 70 71 73 73 72 71 70 69 68 66 60 58 64 71 76 77 79 80 81 82 82 80 78 78 77
69 68 62 62 59 63 65 63 72 81 88 91 90 90 90 90 93 91 83 85 87 82 77 74 73 76 81 82 83 86 85 87 87 83 81 66 46 38 39 43 51 55 54 56 61 66 68 66 65 64 66 69 68 70 71 70 69 69 67 65 62 61 65 67 67 66 65 64 62 63 65 65 67 70 72 71 70 68 67 67 68 68 64 62 70 80 83 83 83 82 82 81 81 81 79 79 79
60 61 54 55 55 57 60 64 73 79 85 88 88 88 86 89 94 91 85 83 82 79 77 74 73 76 79 80 81 84 85 85 84 81 78 61 44 38 41 48 52 52 50 55 62 65 65 64 64 66 67 69 69 68 67 66 67 67 64 62 61 62 65 66 67 67 68 68 62 58 61 63 64 66 68 68 67 65 66 69 72 74 73 72 75 80 81 81 81 81 81 80 80 81 80 79 78
51 56 49 46 47 51 56 66 77 79 84 87 88 87 86 88 89 91 88 83 82 77 75 73 73 76 76 77 79 82 83 84 83 81 75 56 41 41 47 53 54 51 48 52 60 61 59 60 63 66 67 68 67 64 62 64 65 64 63 63 63 64 65 66 67 68 70 71 63 53 53 56 58 60 63 64 62 63 67 72 75 77 79 80 80 81 81 82 82 82 80 80 80 80 79 77 75
43 43 42 38 37 48 59 70 79 81 86 88 87 89 90 89 85 91 89 81 82 75 72 73 71 73 73 74 77 79 81 81 81 80 75 60 44 45 54 57 55 51 47 50 55 56 57 60 63 65 66 66 64 60 59 62 64 64 64 64 65 64 64 66 67 68 69 68 63 57 56 58 58 59 60 60 60 64 70 75 77 78 79 81 82 82 82 83 82 80 79 78 79 79 78 77 75
35 32 33 28 27 47 65 70 78 81 87 86 86 94 94 86 84 94 91 81 83 76 72 73 71 71 70 72 75 75 78 79 79 78 78 72 55 49 55 58 55 50 48 50 51 52 57 61 62 64 65 64 62 58 56 60 63 64 65 65 64 62 62 65 66 67 67 67 68 65 64 65 64 61 60 61 62 66 73 77 79 79 78 78 80 82 82 82 80 79 78 78 78 78 78 77 76
28 26 23 25 33 54 67 70 79 80 83 84 83 94 95 88 89 93 88 84 84 78 76 75 71 70 67 69 73 73 75 76 78 77 78 76 62 52 52 56 56 52 49 49 49 52 59 62 61 62 63 62 61 57 55 61 65 66 67 67 65 63 63 65 66 66 66 68 73 72 67 68 71 69 66 65 66 70 76 79 80 81 82 79 79 81 81 80 80 79 78 78 77 77 78 77 76
26 21 19 44 64 69 69 70 79 76 78 82 78 87 95 94 91 85 82 84 84 81 80 78 72 69 67 66 69 71 73 74 76 75 75 74 67 59 52 52 56 54 52 51 50 53 60 63 62 61 61 61 60 56 57 63 65 67 70 71 70 68 68 70 71 68 68 70 74 75 70 69 74 76 74 70 70 73 78 80 79 81 84 83 81 82 80 77 77 80 79 78 77 77 77 76 75
25 20 22 59 87 80 72 73 77 72 74 76 67 77 92 91 85 80 80 82 85 87 82 78 74 71 67 64 65 68 70 71 73 73 73 72 69 64 56 53 54 55 56 55 53 55 61 65 63 59 59 60 59 55 59 65 65 69 75 77 76 74 74 76 77 75 74 74 75 76 73 73 76 78 78 76 75 76 78 79 79 81 83 83 83 83 80 76 77 79 79 79 79 79 78 74 72
22 22 19 53 91 86 73 73 76 73 76 74 63 73 83 80 82 81 81 81 84 88 84 78 75 73 68 64 63 66 68 69 70 70 71 70 68 66 62 56 53 55 59 57 54 56 62 65 62 58 58 59 56 54 60 65 66 71 78 78 76 76 77 77 78 79 79 78 76 76 75 74 77 79 79 78 78 78 78 79 80 81 82 81 81 82 80 78 78 78 79 82 83 82 77 71 69
26 26 23 42 66 71 72 72 73 73 78 75 64 72 77 71 78 81 82 85 84 85 85 82 78 73 67 63 62 64 66 68 68 69 69 69 67 65 64 60 54 55 60 57 55 59 62 63 60 57 57 57 52 52 60 67 67 73 77 74 74 75 76 76 76 77 78 78 76 76 76 74 77 80 79 80 80 81 81 81 80 79 78 77 77 77 76 76 77 77 79 81 80 78 74 68 67
36 28 28 31 28 55 82 74 66 67 76 79 70 77 77 68 74 79 81 84 83 81 81 80 78 73 66 61 63 62 64 66 67 68 67 68 67 64 64 61 54 54 61 60 57 60 60 60 59 56 56 55 50 49 58 67 68 72 73 72 74 75 75 75 75 77 75 75 76 76 76 75 77 80 80 81 82 83 84 83 81 78 76 73 71 69 68 70 74 77 77 76 75 75 73 68 66
44 32 29 25 19 55 84 73 65 63 72 79 76 82 77 67 73 77 79 80 79 79 76 76 74 71 65 61 62 61 62 64 64 66 66 66 66 63 61 60 55 52 59 63 60 59 57 57 57 55 55 55 51 49 57 65 66 70 72 71 74 73 74 75 75 76 73 70 75 76 76 76 77 79 81 80 80 82 82 83 80 76 74 70 67 65 64 64 67 72 74 72 71 72 72 69 67
40 33 28 26 23 41 60 68 69 63 70 77 78 86 78 67 72 75 78 77 76 76 73 72 70 68 64 61 63 61 60 62 61 62 63 63 64 62 59 59 57 53 55 61 63 61 57 56 56 56 57 56 53 51 57 65 68 70 72 72 75 74 73 76 75 76 73 68 69 73 75 77 77 78 79 78 77 77 76 79 79 77 75 71 69 68 67 63 61 66 71 71 71 71 71 70 68
32 28 27 27 22 23 30 45 58 60 72 77 73 80 76 68 72 73 75 75 73 74 71 68 67 66 64 61 63 62 60 60 59 59 59 60 62 61 59 59 59 56 53 56 62 63 59 56 57 58 60 59 58 56 58 67 72 75 75 73 74 74 74 77 75 76 76 67 63 68 71 73 75 75 76 76 76 75 74 77 78 77 76 73 72 71 69 66 63 65 68 72 74 71 69 69 67
27 26 27 28 26 26 19 21 45 63 70 73 68 69 69 67 69 69 70 73 73 72 69 67 67 65 64 61 62 63 61 59 58 59 58 59 60 60 59 59 60 59 56 55 57 60 58 56 56 57 60 61 61 59 58 64 71 74 75 72 71 71 74 77 76 77 78 68 62 65 67 68 71 72 73 75 76 74 75 77 75 76 76 74 73 71 69 68 67 68 69 73 75 69 67 67 65
26 28 28 29 27 28 21 15 37 60 66 68 63 64 66 62 66 69 68 70 72 71 68 65 66 66 64 62 63 64 63 60 59 59 59 59 60 62 61 61 61 60 60 58 54 53 55 56 55 54 59 61 60 59 56 57 65 67 65 66 67 69 73 75 76 78 75 66 62 64 67 67 68 71 72 74 75 74 75 75 73 77 77 72 69 67 68 68 68 70 71 73 72 65 66 68 65
27 27 27 31 27 24 24 15 23 50 65 65 59 64 69 62 64 70 69 69 69 68 67 64 65 66 65 64 63 64 65 63 61 60 60 59 59 62 63 63 61 59 59 59 54 49 51 55 56 56 59 61 60 59 53 50 59 64 61 63 64 65 72 74 74 76 72 66 65 64 67 69 66 68 72 73 74 74 74 74 74 76 75 72 69 65 65 66 67 69 70 74 72 64 67 71 65
28 29 29 31 26 21 25 18 20 45 62 64 61 67 73 70 69 71 70 68 66 66 66 62 63 65 64 64 64 64 65 65 63 61 61 59 58 60 64 64 62 60 59 59 56 50 48 50 54 58 60 60 59 56 51 48 58 67 66 67 68 67 71 74 74 76 74 72 73 69 66 69 66 64 68 73 75 74 73 74 76 76 76 74 70 67 68 66 64 66 69 74 73 66 68 73 69
30 28 28 29 25 22 23 18 18 33 45 55 67 76 80 77 73 75 72 68 66 65 65 63 62 63 64 64 64 64 65 65 64 62 61 60 58 58 61 64 62 62 60 58 57 52 47 44 47 57 62 59 56 53 49 49 57 66 70 72 74 75 75 75 76 77 76 74 76 73 67 67 67 63 65 71 75 75 74 75 75 74 75 72 66 68 72 70 65 64 68 74 75 70 69 72 72
32 27 26 25 24 23 21 16 14 21 27 40 61 79 86 81 77 76 74 73 70 64 63 64 62 62 63 64 65 65 65 65 64 63 62 62 60 57 59 63 62 61 60 57 56 54 50 44 42 53 63 60 54 51 50 51 54 59 65 71 74 77 77 75 73 73 74 73 73 74 69 67 68 66 65 69 75 75 75 77 75 71 72 70 67 68 69 70 69 66 68 72 73 72 71 70 71
34 29 24 21 21 21 19 17 15 19 28 37 49 69 86 87 80 75 74 76 73 67 64 63 61 62 62 63 64 65 65 66 66 64 63 63 61 58 57 61 62 60 58 56 56 55 53 48 43 47 60 62 53 50 50 51 54 56 58 65 70 70 68 67 68 69 71 72 73 74 72 67 67 67 65 68 74 74 72 76 74 69 68 69 69 68 66 69 71 70 71 73 72 72 73 72 69
32 26 19 18 20 18 16 17 16 21 37 45 42 56 84 92 80 71 72 77 76 71 67 62 61 61 61 62 62 64 65 65 66 66 64 64 62 58 56 58 60 58 56 56 56 56 55 54 48 44 54 63 58 51 49 49 52 54 53 58 66 65 58 57 63 66 68 71 72 74 73 68 64 65 65 65 71 71 69 71 71 68 67 68 69 69 69 70 71 72 72 74 75 73 72 71 67
27 20 17 17 15 15 16 16 17 28 50 60 44 44 69 83 79 70 70 79 80 74 68 63 61 60 60 62 60 61 63 63 65 65 64 64 62 59 57 56 58 58 56 55 55 56 56 56 53 46 49 62 63 54 49 47 47 50 50 51 57 60 57 59 64 65 67 71 71 72 72 68 63 62 62 64 67 67 66 69 69 66 67 68 70 71 72 72 71 73 72 72 73 71 69 68 66
21 16 17 16 15 20 22 21 23 29 50 63 49 40 48 57 71 79 77 80 80 72 67 62 59 60 60 61 60 60 61 62 63 64 63 63 61 59 57 56 57 58 57 55 54 56 57 57 57 52 47 55 64 60 52 47 47 49 49 48 49 53 57 63 68 67 67 70 71 71 70 66 61 60 60 61 64 63 65 68 66 65 66 66 69 75 76 73 73 74 73 72 70 69 69 67 64
17 17 17 14 21 28 33 45 39 27 41 54 42 34 33 32 53 79 79 72 69 66 65 62 58 59 59 60 61 60 60 62 62 62 62 62 61 60 58 56 56 57 57 57 56 56 57 57 57 55 50 49 59 64 56 48 46 47 47 45 43 47 54 61 65 64 64 68 69 69 68 63 59 57 56 56 57 57 61 65 63 64 67 65 64 72 79 76 75 78 77 73 71 69 71 69 63
17 21 18 17 31 34 34 48 35 20 39 49 35 24 21 23 38 62 68 60 58 59 61 62 59 59 60 60 61 60 60 60 61 61 61 61 61 60 59 57 56 57 58 58 57 57 57 57 56 56 54 49 52 60 60 52 46 45 45 43 40 43 50 56 56 53 53 58 62 64 64 61 57 56 53 51 49 51 55 58 58 59 64 65 60 63 75 77 77 82 80 75 71 69 70 71 68
16 24 24 21 34 34 30 41 34 29 38 36 27 18 16 22 26 40 58 58 55 54 54 56 57 57 59 60 61 61 60 60 60 61 60 60 60 60 59 58 57 57 58 58 58 57 57 57 56 56 56 52 49 53 60 57 48 42 42 42 40 42 48 51 49 45 45 47 52 57 59 56 54 53 51 47 45 47 51 52 53 52 54 60 60 59 67 75 77 80 82 80 74 69 68 69 70
16 23 26 24 33 30 32 44 38 33 32 25 23 19 19 24 19 24 44 51 51 51 49 50 52 54 56 58 61 61 61 60 60 60 60 59 59 59 59 59 58 57 57 57 57 57 57 57 57 57 56 54 51 50 56 59 53 43 39 39 39 41 45 48 46 42 41 41 43 48 52 50 49 49 47 43 42 45 49 49 50 50 48 53 59 60 63 70 72 75 81 84 80 74 70 68 68
19 22 23 27 37 35 36 42 35 30 32 27 22 21 24 23 18 21 27 34 44 47 47 47 47 51 54 56 60 62 63 62 60 60 60 58 58 58 58 58 58 58 57 57 57 57 57 57 57 57 57 56 54 52 54 58 55 46 39 37 38 39 42 44 44 40 38 38 39 40 43 46 45 45 43 41 42 45 47 47 47 47 47 49 54 58 60 63 66 69 75 79 81 80 74 68 68
21 22 19 20 30 35 35 37 40 37 32 30 26 26 31 24 19 25 21 22 35 40 45 48 46 48 52 56 60 62 63 63 61 61 60 59 58 57 58 58 58 59 58 58 57 57 57 57 57 57 57 57 55 53 53 55 54 48 41 37 37 38 40 42 43 41 38 39 40 38 36 39 42 43 41 39 41 44 46 46 46 45 46 47 50 53 54 56 58 62 69 72 74 77 74 68 69
24 22 19 17 19 27 29 32 45 38 24 33 34 25 31 26 18 28 32 30 33 37 43 46 46 48 50 55 59 61 62 63 62 61 60 59 59 58 58 58 59 59 59 58 57 57 57 57 57 58 58 58 56 55 52 52 53 50 43 38 37 38 38 40 41 41 40 40 43 42 37 36 40 43 42 39 39 42 45 46 46 46 46 47 48 49 50 52 53 55 61 65 66 68 67 66 68
22 20 20 20 16 23 31 32 42 38 28 37 36 23 33 36 25 32 44 46 43 42 41 41 44 48 50 54 57 59 62 61 62 62 61 60 59 58 59 58 59 59 59 59 58 58 58 57 58 58 58 58 57 56 54 51 53 51 45 38 37 38 38 38 39 39 41 41 42 43 40 37 37 39 41 40 39 41 43 45 47 47 47 47 47 47 47 49 51 51 53 57 61 65 64 63 66
17 18 20 24 22 28 35 31 32 37 36 37 33 28 37 44 42 41 46 53 53 50 47 42 41 46 50 52 54 58 62 61 63 63 62 61 59 58 59 58 59 59 59 59 59 59 59 58 58 58 58 59 58 58 56 54 53 52 47 39 35 37 37 37 37 38 39 40 40 41 40 37 34 35 39 40 40 41 42 43 44 44 46 47 47 47 47 48 50 50 51 52 56 61 60 58 59
17 19 19 25 29 29 30 30 32 37 41 40 35 36 42 47 48 41 40 52 57 55 58 53 42 40 45 49 52 56 61 62 63 63 62 62 60 59 58 58 58 59 59 60 60 61 60 60 60 59 59 59 59 59 58 57 56 54 51 44 37 36 37 36 37 38 38 38 38 39 38 35 33 33 36 37 37 39 38 35 34 35 38 41 43 45 45 46 47 48 49 51 54 57 56 54 54
22 26 23 23 29 29 26 27 29 34 45 49 42 44 53 51 40 29 33 50 58 59 63 62 51 41 38 43 49 54 58 61 61 61 62 62 60 59 58 58 59 59 60 61 61 61 61 61 61 61 60 60 59 59 59 59 59 58 55 50 42 37 37 36 36 37 38 37 38 38 36 34 33 30 30 31 31 32 30 27 26 27 29 33 38 42 44 44 45 45 46 49 52 54 53 51 51
24 27 27 23 25 32 37 39 38 36 38 42 41 44 52 48 32 23 30 47 58 60 62 65 65 57 44 39 44 49 54 58 60 60 61 61 61 60 59 59 59 59 60 61 61 61 62 63 62 62 61 60 60 59 59 60 60 60 59 56 50 43 40 38 36 37 38 38 39 38 36 35 33 29 26 25 25 25 25 24 23 23 24 26 31 36 41 43 43 44 45 47 49 51 51 50 49
Wind_Speed
14 14 14 12 10 9 5 3 1 1 1 1 2 2 2 1 1 2 1 2 1 2 4 4 10 12 5 3 5 6 8 4 3 2 3 14 27 28 26 27 26 26 28 28 27 26 25 24 23 21 20 20 20 21 21 20 20 19 18 17 16 14 13 12 10 10 10 11 11 10 10 9 8 7 7 7 8 8 8 8 8 9 10 10 11 11 11 10 9 10 11 10 10 10 11 11 10
16 15 14 11 9 5 3 3 1 1 1 2 2 2 1 1 1 3 3 2 1 4 7 9 15 11 6 7 7 6 8 5 2 8 14 27 31 27 27 27 27 27 27 28 27 26 25 24 22 20 20 20 20 21 21 20 19 18 16 15 14 13 12 11 10 11 12 12 11 10 9 9 9 8 8 8 8 8 8 8 9 10 11 11 11 11 11 11 10 10 11 10 10 10 10 11 10
16 13 11 10 7 4 2 2 1 1 1 2 2 1 1 1 3 4 3 1 3 7 10 11 13 8 4 5 4 3 5 4 9 20 25 31 32 29 29 27 27 27 27 28 26 26 25 24 21 20 21 20 20 20 20 19 18 17 15 14 13 12 11 11 11 12 13 11 10 10 9 9 10 10 10 9 9 9 9 10 11 11 11 12 11 11 11 11 11 11 10 10 10 10 10 10 11
14 10 8 7 5 3 2 1 1 1 2 2 2 2 1 1 3 2 4 3 5 9 10 9 7 5 3 4 5 6 6 7 18 27 29 32 32 31 30 28 29 28 28 27 26 26 25 23 21 21 20 20 20 19 19 17 16 15 14 14 13 13 12 12 13 12 12 11 10 10 10 10 11 11 10 10 10 10 11 11 11 11 11 12 12 11 11 12 11 10 10 10 10 10 10 10 11
12 9 7 5 3 1 1 1 1 1 2 1 1 1 1 2 4 3 5 3 5 8 9 8 5 4 5 6 4 3 7 13 19 26 33 32 30 32 31 30 29 29 28 27 26 26 24 23 21 20 19 19 18 17 17 16 15 15 14 14 13 13 12 13 12 12 11 10 10 10 10 10 11 11 11 11 11 11 12 12 12 12 12 12 12 12 11 12 11 10 10 10 10 10 11 11 11
11 8 5 3 2 0 1 2 2 3 3 2 1 1 2 4 5 4 4 4 4 8 11 7 5 7 6 5 4 6 12 15 20 27 34 34 31 32 30 30 29 28 27 27 26 24 24 22 21 20 19 18 16 16 15 15 15 14 14 13 13 13 12 12 11 11 10 9 10 10 10 10 10 11 11 11 11 12 12 12 12 12 12 12 12 12 11 11 10 10 10 10 10 10 11 12 11
9 6 4 1 1 0 1 2 3 4 3 3 2 2 4 4 7 7 5 3 4 8 10 6 9 11 5 3 7 9 8 13 24 29 33 34 32 32 30 30 29 28 27 27 26 24 23 21 21 20 18 17 15 15 14 14 14 14 13 13 12 12 12 11 11 11 10 9 10 10 10 10 10 10 11 11 12 12 12 12 12 12 12 12 12 11 11 11 10 11 11 11 10 11 11 11 11
7 4 3 1 0 1 1 3 3 3 1 2 2 2 4 7 12 9 5 2 3 5 8 10 11 8 4 6 8 6 5 14 28 30 33 33 32 31 30 30 28 28 27 26 26 23 21 20 21 19 18 17 15 15 13 13 14 14 13 13 12 11 12 12 11 11 10 10 10 10 10 10 10 10 11 11 12 12 12 11 11 11 11 12 11 11 10 11 11 12 11 11 10 11 11 11 11
7 3 2 1 0 1 2 3 4 3 1 0 1 1 4 9 13 9 7 4 4 7 11 14 9 4 7 12 11 8 10 18 28 31 33 32 31 30 29 28 27 28 27 26 26 23 21 20 20 19 18 17 16 14 13 13 14 14 13 13 12 12 12 11 11 10 10 10 10 10 10 11 10 10 11 10 11 11 11 11 11 11 11 12 11 11 10 10 11 12 12 12 12 11 11 10 10
6 3 1 1 0 2 2 3 3 2 0 1 1 3 5 8 9 8 9 7 10 11 13 16 8 10 14 12 10 11 15 21 30 33 32 31 31 29 28 27 26 27 27 27 25 23 22 20 19 18 17 16 15 14 13 13 14 14 13 13 12 12 12 11 11 10 11 11 11 10 10 10 10 10 11 11 11 11 12 12 11 11 11 12 11 10 10 11 12 12 12 13 13 12 12 11 11
4 2 1 0 0 1 2 3 4 2 1 1 1 4 6 8 7 6 9 8 11 12 17 17 10 18 17 10 11 12 18 26 32 35 33 32 30 29 27 26 26 26 27 27 25 23 21 19 18 17 16 16 15 14 13 13 14 13 12 13 12 12 11 11 11 11 11 11 11 11 10 10 10 10 11 11 11 11 11 12 11 10 10 11 11 10 10 11 12 13 13 13 13 12 12 12 12
2 1 1 1 1 2 3 3 4 3 1 1 1 4 8 11 5 5 8 5 8 13 16 15 14 20 12 7 14 19 24 28 33 35 33 32 29 28 27 26 26 26 26 26 25 23 21 19 18 16 16 15 15 14 14 13 13 13 13 13 13 12 11 11 11 11 11 11 11 11 11 10 10 10 10 11 10 10 10 11 11 10 10 10 10 9 10 12 13 13 13 13 13 12 12 12 12
3 1 3 0 2 2 3 3 3 2 1 1 1 5 12 11 4 6 7 5 7 9 9 14 22 18 9 10 20 25 27 30 33 33 32 31 29 27 27 27 27 26 26 25 25 23 21 20 18 17 16 16 15 15 14 13 13 13 14 13 13 12 11 11 11 11 11 12 12 12 11 10 10 10 10 10 9 9 9 10 11 10 10 10 10 10 11 13 14 13 13 13 13 13 12 12 12
6 2 3 0 1 2 2 2 2 1 1 1 2 6 10 6 7 9 8 6 3 5 8 17 26 17 12 15 20 27 28 31 33 32 32 29 28 27 27 28 27 26 26 25 25 23 22 21 19 18 17 16 16 16 15 14 14 14 13 13 12 12 11 11 10 11 12 12 12 11 11 10 10 9 9 9 9 9 9 11 11 11 11 10 10 10 11 13 13 12 12 13 12 12 12 12 12
9 3 1 1 2 2 2 2 2 1 1 2 4 6 7 6 10 11 8 6 4 12 13 19 21 11 15 15 18 30 30 33 33 31 31 28 27 26 26 27 27 26 25 25 23 22 21 21 20 19 17 17 17 16 16 15 14 13 13 13 12 12 11 11 11 12 12 12 11 11 11 10 9 9 10 9 9 9 10 11 11 11 11 11 10 10 12 13 12 11 12 13 12 12 11 12 12
10 5 1 1 2 1 3 2 1 1 1 3 6 7 7 7 11 10 9 10 10 15 11 17 12 3 19 20 23 35 33 34 32 31 31 28 28 26 27 27 27 26 25 24 22 21 21 20 20 19 18 17 17 16 16 16 14 13 13 13 12 12 12 13 13 13 12 12 11 11 11 10 10 10 11 10 10 9 10 11 11 11 11 11 11 11 12 13 12 11 12 12 12 11 11 11 11
8 5 0 2 2 1 2 2 2 2 3 5 8 9 6 6 9 8 10 12 12 11 10 14 6 7 24 23 29 37 34 34 30 30 30 29 29 28 28 27 27 26 24 22 21 21 21 20 20 19 18 17 17 17 17 16 15 14 13 14 13 13 13 13 13 13 12 12 12 12 11 11 11 11 11 11 10 9 10 10 10 10 10 11 11 11 11 12 12 12 11 11 11 10 10 10 10
7 2 1 3 2 3 3 2 3 5 5 7 10 9 7 7 8 10 9 9 11 12 12 12 5 14 23 24 34 36 33 33 30 31 30 30 31 30 30 28 27 25 24 23 22 21 20 21 20 19 19 18 18 18 17 16 15 15 14 14 14 14 14 13 13 13 13 12 12 12 12 12 12 12 12 12 11 10 10 10 10 10 10 10 11 11 11 12 12 11 11 10 10 9 9 9 10
7 2 1 3 3 3 3 4 6 5 7 8 9 10 10 9 12 13 8 5 10 10 11 15 18 21 23 30 38 33 33 33 31 31 30 32 33 32 31 29 28 26 25 24 23 21 21 21 20 19 18 18 19 18 18 16 15 15 15 15 15 15 14 13 14 13 13 13 12 12 12 12 12 11 11 11 11 10 10 10 10 10 10 10 11 11 11 11 11 11 10 10 9 9 9 9 9
9 5 1 4 5 3 3 5 6 7 13 11 8 10 11 11 14 13 7 6 6 5 11 17 22 28 31 36 36 33 35 33 32 31 29 33 33 32 31 30 29 26 25 25 24 22 21 21 20 19 18 18 19 19 18 17 16 16 15 15 15 14 13 13 13 12 13 12 12 12 12 12 12 11 11 11 11 11 11 10 10 10 10 11 11 11 11 10 10 10 10 10 10 9 10 9 9
7 8 4 3 3 3 5 5 7 12 17 14 10 10 10 12 13 12 10 7 2 6 17 20 25 35 37 37 35 36 36 34 33 30 29 32 33 32 30 29 28 26 26 25 24 23 22 21 20 20 19 18 18 18 18 18 18 16 16 16 15 14 13 14 13 12 13 12 12 12 12 13 13 12 11 11 10 11 11 11 10 10 11 12 12 12 11 10 10 10 10 10 9 9 9 8 8
4 8 11 8 3 2 5 6 10 14 16 14 12 9 11 13 10 13 13 6 3 9 19 22 29 38 39 39 37 36 37 35 34 31 30 32 34 33 30 29 28 27 26 25 25 24 23 21 20 20 19 18 17 17 18 18 18 17 16 16 15 15 15 14 14 13 13 12 12 12 12 12 13 12 12 11 10 11 11 12 12 12 12 13 14 13 11 11 10 10 10 10 9 8 8 8 8
6 7 13 14 11 7 5 9 11 15 16 14 13 11 15 13 6 12 14 5 6 14 19 21 28 37 39 39 37 37 38 36 34 32 30 33 35 33 31 30 29 28 26 25 24 23 23 21 20 19 19 19 17 18 18 18 18 17 16 16 16 16 16 15 14 14 13 12 11 11 12 11 12 12 12 12 11 12 12 13 13 13 14 14 13 12 11 10 10 10 10 10 9 8 8 8 8
9 7 10 13 16 15 11 12 12 16 18 15 16 16 16 13 7 13 14 8 9 16 20 22 28 36 37 37 36 37 37 36 35 31 29 32 34 32 31 30 28 27 25 24 24 23 23 21 20 20 19 19 18 19 18 19 18 17 17 17 17 16 16 15 15 14 13 12 11 11 12 11 12 12 13 13 12 14 14 14 15 14 14 13 12 11 11 10 9 9 10 10 9 8 8 8 8
10 10 13 13 14 18 17 15 15 17 15 15 18 15 14 14 13 13 13 11 11 16 22 24 29 34 35 36 35 35 36 35 34 31 29 30 31 31 30 29 28 27 25 24 24 24 23 21 21 20 19 19 19 19 19 19 19 18 18 17 17 16 16 16 15 14 13 13 12 12 13 12 12 12 13 13 14 15 15 15 14 14 14 13 12 11 10 10 8 8 9 9 8 8 8 8 8
10 13 16 13 12 16 20 18 18 17 14 16 15 9 9 13 13 8 9 14 13 18 26 28 32 34 33 34 35 35 36 36 35 32 30 29 30 31 30 30 29 28 26 24 24 24 23 23 22 21 20 20 20 20 20 20 19 19 18 17 16 16 16 15 15 14 14 13 13 13 13 12 12 12 12 13 15 15 15 15 14 14 14 13 13 12 11 9 9 8 8 8 7 7 7 7 7
11 13 16 17 14 16 23 20 18 17 15 17 12 6 9 13 10 3 9 17 16 22 31 31 33 35 33 34 35 34 35 36 35 33 31 30 31 32 32 31 30 28 27 26 25 24 24 24 22 21 20 20 21 20 20 20 19 19 18 16 15 15 15 15 15 14 14 13 13 13 13 13 12 12 13 13 14 15 15 14 14 14 14 14 13 12 11 10 10 9 9 8 7 6 5 6 7
13 13 13 14 9 14 20 18 18 16 11 14 13 8 7 8 4 4 15 21 20 28 34 32 33 35 32 33 35 34 35 36 35 34 33 33 32 33 32 31 30 29 28 27 25 24 23 23 22 22 21 21 21 21 21 20 19 19 17 16 15 15 14 14 14 14 14 13 12 12 13 14 12 12 12 13 14 13 13 13 13 14 13 13 13 12 12 11 11 10 9 8 6 5 4 4 5
16 11 6 4 2 9 13 11 17 14 7 16 17 9 3 5 3 9 21 24 24 31 35 34 34 33 30 32 34 34 36 36 36 36 35 34 32 31 30 29 29 29 28 26 24 24 23 22 22 23 23 22 22 22 22 20 19 19 17 16 15 14 13 13 13 13 13 12 11 11 13 14 13 12 12 13 13 12 12 12 12 13 12 12 11 11 11 11 11 10 10 8 6 4 3 2 3
12 6 1 2 4 2 8 8 14 10 7 21 16 3 5 7 6 15 24 27 27 29 33 36 35 33 30 30 33 35 37 37 38 37 36 35 32 29 28 27 28 28 27 26 25 25 23 22 23 24 24 23 23 23 22 21 20 19 18 17 15 14 13 12 11 12 12 11 11 11 12 13 12 13 13 12 12 11 11 11 11 11 11 11 11 11 11 10 10 10 10 7 5 3 1 1 3
4 3 1 3 1 2 6 7 12 6 6 22 11 4 5 7 9 18 26 29 27 27 33 36 34 32 30 29 33 36 38 39 39 38 37 35 33 29 27 26 27 27 27 27 26 25 24 24 24 25 25 24 24 24 23 21 20 20 19 17 15 14 13 11 11 11 11 10 10 10 11 12 12 12 13 12 11 11 10 10 10 11 10 10 10 11 11 10 9 10 9 7 6 5 2 2 4
1 2 3 0 2 3 5 6 13 7 7 19 8 3 4 4 11 21 28 29 26 27 32 34 34 33 30 29 33 36 38 39 39 39 38 36 34 30 27 26 27 27 28 28 27 26 26 25 25 26 25 25 25 25 24 21 20 20 19 17 16 15 13 11 10 9 9 10 10 11 11 12 12 12 12 11 11 10 10 10 10 10 10 10 11 11 10 10 10 10 9 8 9 7 4 3 4
3 1 2 2 1 2 3 5 12 6 5 13 9 2 2 3 12 23 28 29 26 27 30 33 35 35 32 31 33 36 37 38 39 40 39 37 35 31 28 26 26 27 29 28 28 28 27 27 26 26 26 26 26 25 24 21 20 21 19 18 16 15 13 10 9 7 7 10 11 11 11 11 12 11 11 10 10 10 10 10 10 9 9 9 11 10 10 10 10 11 10 10 11 9 5 4 4
3 2 1 2 1 3 3 4 10 7 2 8 9 5 4 2 13 23 28 29 27 28 30 33 36 36 33 32 33 35 38 38 39 41 41 39 37 33 29 26 25 27 29 29 29 28 28 28 27 27 26 26 26 25 24 22 21 21 19 17 16 15 13 10 8 7 7 9 11 10 10 10 10 10 10 10 10 10 10 10 9 8 8 8 9 9 9 10 10 11 11 13 13 10 7 5 4
1 0 1 3 2 2 3 3 8 10 5 7 9 9 9 3 10 20 26 30 28 28 30 32 35 37 34 33 34 35 39 39 39 40 41 40 38 35 31 28 26 26 28 29 29 29 29 28 28 28 27 26 25 25 24 23 21 21 19 18 16 15 13 11 9 8 7 8 11 10 10 10 10 10 10 9 10 10 9 9 8 7 7 7 8 7 8 9 10 10 12 13 13 12 9 7 6
4 2 1 2 3 1 4 2 6 14 9 8 10 11 11 7 8 15 22 28 27 25 27 28 31 35 35 35 34 35 39 41 40 38 38 40 40 38 34 31 29 27 27 29 30 30 30 29 30 29 28 27 25 25 25 24 23 22 21 19 18 16 14 12 11 9 8 8 11 10 10 11 10 11 10 9 9 9 8 9 8 8 8 8 7 6 6 8 9 10 11 12 13 12 11 9 8
2 2 1 3 3 3 4 4 5 13 9 10 14 12 12 10 8 13 21 26 23 21 24 26 28 31 34 35 35 36 38 41 41 36 36 38 40 39 36 34 32 30 29 30 31 32 31 31 31 31 30 29 27 27 27 26 26 25 23 22 20 18 16 14 13 11 9 10 11 10 9 10 11 11 11 10 10 9 9 9 9 9 8 8 7 6 7 8 9 9 11 12 12 12 11 10 9
3 3 3 4 4 4 6 5 5 10 8 8 11 12 9 7 7 11 19 20 20 23 25 28 31 30 32 34 35 37 37 38 39 36 34 37 40 41 39 37 36 34 32 32 32 32 33 32 33 32 31 30 29 27 27 27 27 26 25 23 21 19 17 15 13 11 10 11 11 10 9 10 12 12 11 11 10 10 10 10 10 9 9 8 7 7 8 9 9 9 11 12 12 13 12 9 7
4 4 3 4 3 2 6 7 4 8 8 4 5 8 5 3 5 9 16 19 22 27 28 30 34 32 32 34 35 36 35 36 39 38 35 36 40 41 41 41 39 36 34 32 33 33 33 34 34 33 32 31 30 28 27 27 27 27 25 23 22 20 18 15 12 10 10 11 11 10 10 10 12 13 12 11 11 10 10 10 10 10 9 8 7 7 8 9 9 10 11 12 13 15 13 10 8
4 4 3 4 2 2 3 6 3 4 5 1 4 5 2 4 5 7 15 19 19 23 25 26 31 34 35 37 37 38 37 38 40 40 37 35 40 43 43 44 41 39 37 34 34 34 35 35 35 35 33 32 30 29 27 26 27 27 25 24 22 20 18 15 13 12 12 11 10 11 11 12 12 12 12 12 11 10 11 11 10 10 9 8 7 7 7 7 9 10 12 13 14 15 14 12 11
5 6 6 5 3 4 6 5 5 2 1 2 4 2 2 5 7 5 10 14 13 18 22 22 27 32 34 34 36 38 40 40 41 43 41 36 39 44 44 45 44 42 41 37 36 35 35 35 35 36 34 32 31 30 28 26 27 28 27 25 24 23 20 18 18 17 16 14 12 12 12 12 12 12 12 12 11 11 12 11 11 10 9 9 8 8 7 7 8 10 12 13 14 15 15 14 13
5 7 9 7 5 7 8 4 4 2 4 4 4 1 4 4 8 7 6 9 11 13 17 21 25 28 30 31 33 37 39 41 42 44 46 40 38 43 45 46 46 45 43 39 37 35 34 34 35 36 35 34 32 30 29 28 27 29 30 30 29 27 25 23 22 21 19 17 14 12 12 12 12 12 12 12 12 12 12 12 11 10 9 9 9 9 8 8 8 9 11 13 14 14 15 15 15
5 6 7 8 8 8 8 4 2 3 5 5 5 5 4 3 5 8 7 9 11 11 13 19 25 27 30 32 34 36 38 39 41 42 46 43 39 42 47 47 48 47 44 41 38 36 33 33 34 36 36 34 33 32 30 29 28 29 32 33 32 29 27 25 23 20 19 17 15 13 12 12 12 13 13 13 13 13 13 13 12 11 9 9 9 9 8 8 8 9 9 11 12 13 14 15 15
5 5 7 7 8 8 9 6 5 5 3 2 0 3 1 3 4 6 8 8 9 11 13 16 24 28 30 33 34 36 38 39 40 40 43 44 41 43 47 49 49 48 45 42 40 38 35 33 32 34 35 35 34 33 32 30 30 29 31 33 33 31 28 25 22 21 19 17 16 14 13 13 13 14 14 14 14 14 14 13 12 11 10 10 10 9 8 8 9 8 9 9 10 11 13 14 15
10 7 6 6 7 7 7 6 4 3 2 0 3 2 2 4 4 4 8 8 10 15 17 16 21 28 30 32 34 37 39 40 40 41 43 44 43 43 46 48 49 47 46 44 42 39 36 34 32 32 34 35 35 35 34 32 30 30 31 33 34 32 29 26 23 21 20 19 17 15 14 14 15 15 15 15 15 14 14 14 13 12 11 11 10 9 9 9 9 8 7 8 8 9 11 14 14
10 5 4 4 4 3 3 4 4 2 3 4 7 5 3 5 3 4 7 8 11 16 16 16 21 28 31 33 35 36 38 39 40 42 44 45 44 43 44 46 48 48 47 45 43 40 38 36 35 33 33 35 35 35 35 33 32 31 31 32 34 33 31 28 25 23 22 21 19 17 16 15 16 17 16 16 15 15 15 14 13 13 12 12 11 11 10 9 8 7 6 6 7 8 10 12 13
7 0 2 4 1 2 2 2 3 4 1 6 9 9 6 4 4 4 7 11 16 16 13 14 19 27 32 34 36 37 38 39 40 41 43 46 45 42 42 45 47 48 48 47 45 42 40 38 37 35 33 34 35 35 35 35 33 33 32 33 33 33 32 30 28 26 24 23 22 20 18 17 17 17 16 16 16 16 15 15 14 13 12 12 13 12 11 10 8 6 5 6 7 8 9 10 11
7 1 1 1 3 2 3 4 3 3 4 7 7 7 4 3 5 5 10 15 18 17 14 14 18 25 32 35 37 38 39 40 40 40 42 44 44 42 42 45 47 48 48 48 47 45 43 41 38 37 35 35 35 35 35 35 35 34 33 33 32 33 33 32 30 28 25 24 23 22 20 19 19 19 18 17 17 16 16 16 15 14 14 13 13 13 13 11 8 6 5 5 6 8 9 10 11
4 3 3 1 2 1 1 2 1 3 5 5 4 5 2 5 7 8 13 15 14 15 16 16 20 26 32 34 36 38 39 40 41 41 41 42 44 44 44 46 47 49 50 50 49 47 45 43 41 39 37 36 36 36 36 35 35 35 34 33 32 32 33 34 32 29 26 24 23 23 22 22 21 21 20 18 17 17 17 17 16 15 15 13 12 13 14 12 10 8 7 5 5 7 8 9 10
3 5 4 4 3 2 3 3 1 2 4 5 3 3 1 4 6 8 13 15 17 20 22 24 27 31 34 36 38 38 39 40 41 42 42 42 44 45 46 47 49 50 51 51 50 50 48 46 44 41 38 37 37 37 36 36 36 36 35 34 33 32 34 35 33 31 28 25 24 24 24 23 23 22 21 19 17 17 17 17 16 15 14 13 13 13 14 13 12 10 9 7 6 6 7 8 9
2 5 6 5 5 4 3 3 3 3 3 3 1 2 3 4 5 6 9 13 16 19 24 27 29 32 35 35 35 36 38 40 41 42 44 44 45 46 46 47 49 51 52 52 51 51 50 48 46 43 41 39 39 39 38 37 37 36 36 35 34 33 34 34 34 32 30 27 25 25 24 24 24 23 21 19 18 18 18 17 17 16 14 14 14 14 14 14 13 12 11 9 8 7 8 9 9
3 2 5 2 3 4 2 3 5 4 1 1 1 2 3 5 3 6 8 10 9 12 18 22 25 28 29 30 33 36 39 40 42 43 45 46 46 46 47 48 49 51 52 52 52 52 52 50 48 45 43 41 40 40 40 39 37 37 37 36 36 35 34 34 35 34 32 29 27 25 25 24 25 24 22 21 20 20 19 18 17 16 15 14 14 14 14 14 13 12 12 11 10 9 9 9 10
2 2 1 4 3 3 3 2 1 3 2 1 2 2 4 3 2 9 14 13 12 10 9 15 22 24 26 30 34 39 41 42 44 46 46 47 47 47 47 48 49 51 52 53 53 53 53 52 50 47 44 42 41 41 41 40 39 38 37 38 37 37 36 35 35 35 33 31 29 27 26 25 25 25 23 22 21 21 20 19 17 16 15 15 15 15 14 14 13 13 12 12 11 10 10 11 11
1 1 4 5 2 2 3 1 2 4 1 3 1 1 3 4 2 9 16 17 16 15 10 11 16 19 24 30 35 39 43 45 46 47 46 46 47 48 48 48 49 51 53 53 53 53 53 52 50 48 46 45 43 42 41 41 41 40 39 39 39 39 38 37 36 35 34 33 31 29 27 27 26 25 24 23 22 22 21 20 19 18 17 16 16 16 15 15 15 14 13 12 11 11 11 11 12
3 2 3 3 2 1 1 2 2 2 1 3 3 1 3 4 4 9 14 15 16 17 14 12 10 15 23 29 34 38 40 41 42 44 46 48 49 49 50 49 50 50 52 53 52 52 52 52 51 49 47 45 44 42 42 42 42 41 40 39 40 40 40 39 38 36 35 34 33 30 28 27 26 25 25 24 23 22 21 20 20 19 19 18 18 17 16 16 16 15 14 13 13 13 13 12 12
6 4 5 4 2 2 1 1 3 2 3 3 2 3 2 1 4 7 10 12 13 15 15 14 11 16 27 30 32 36 37 39 42 43 46 49 50 50 51 51 50 50 50 51 51 52 52 52 52 51 48 46 45 43 43 43 42 42 41 40 40 41 41 40 39 38 37 35 34 32 30 28 27 26 25 24 23 22 21 20 20 19 19 20 19 19 18 18 18 17 16 15 15 15 15 14 13
7 7 7 6 4 2 1 1 1 3 3 2 2 2 2 5 2 6 9 10 12 14 13 13 16 16 27 35 33 35 38 40 43 45 46 48 49 50 50 51 49 48 48 49 51 52 52 52 52 51 50 49 48 46 44 44 43 41 41 41 41 40 41 42 41 40 39 37 35 34 32 29 28 27 25 24 24 23 22 21 20 20 19 20 20 19 19 19 19 18 18 18 17 17 17 16 14
7 6 6 6 5 4 2 1 3 2 2 2 4 3 4 5 2 6 8 8 10 15 16 13 20 23 17 31 35 36 41 43 43 45 45 46 48 49 49 49 48 47 47 48 50 51 51 51 52 51 51 51 50 48 46 45 43 42 41 41 41 40 41 42 42 42 41 40 38 36 34 32 31 29 27 26 25 24 23 23 22 21 20 20 20 20 20 19 19 19 18 18 19 19 19 18 17
Wind_Direction
128 134 134 130 131 136 146 149 128 332 235 276 251 243 261 168 292 275 203 190 108 136 139 115 150 143 110 107 118 94 78 113 160 144 159 146 150 153 150 151 150 144 140 140 140 137 139 143 146 144 142 141 142 144 143 143 144 144 145 145 145 142 140 137 138 138 135 131 127 124 122 120 121 123 130 129 122 114 112 113 113 111 110 113 116 119 121 121 122 122 121 120 120 121 122 123 122
134 139 134 128 127 127 137 129 112 270 241 262 251 193 237 90 158 245 208 182 70 124 133 130 148 137 82 109 104 86 67 23 177 130 129 143 150 153 152 153 151 147 142 142 141 140 144 147 147 144 143 142 142 144 144 145 145 146 146 146 145 141 139 140 140 135 132 128 123 122 121 120 120 122 124 123 121 119 118 115 112 112 114 117 120 121 120 120 120 119 120 120 121 121 119 121 123
140 139 133 133 126 106 104 88 133 204 254 250 275 226 231 93 192 230 176 126 62 123 133 131 145 138 80 96 74 74 73 43 138 131 132 149 153 153 155 155 153 149 145 144 143 145 148 149 148 145 144 144 144 144 145 146 146 147 148 148 145 142 144 142 138 134 132 130 128 127 124 122 121 121 120 122 123 122 120 116 113 115 117 118 120 119 119 118 116 113 114 116 118 119 119 121 124
140 130 127 129 115 99 94 47 182 199 257 236 300 248 182 218 219 199 138 114 106 132 141 129 123 130 95 91 90 85 97 126 140 136 142 155 155 153 156 156 154 151 148 147 147 149 150 149 147 144 144 145 144 145 146 148 150 151 151 150 147 147 146 140 136 135 136 135 135 132 128 126 123 121 122 124 124 122 118 116 116 117 116 116 117 117 117 114 110 109 111 114 116 118 119 121 122
141 131 129 115 91 90 108 284 255 222 236 193 267 206 158 201 191 158 141 125 120 140 149 134 106 113 104 92 82 95 138 144 144 144 149 156 156 153 156 157 155 153 151 150 150 150 149 146 144 143 145 146 144 145 147 150 152 152 150 149 148 147 143 138 138 138 140 141 140 135 132 128 123 121 122 124 123 120 118 119 119 117 116 114 114 114 111 106 107 111 112 114 115 116 117 118 119
147 136 130 106 52 65 136 268 256 237 239 172 205 170 169 191 170 153 134 113 101 140 147 129 119 115 94 70 52 134 149 148 151 151 151 155 156 156 157 158 156 154 152 151 151 150 146 145 145 146 148 148 145 144 146 149 150 149 147 146 145 143 139 139 142 142 143 146 143 138 134 129 124 122 122 123 123 121 120 122 120 118 117 114 113 111 107 103 105 108 111 114 115 116 116 116 118
155 142 133 93 2 217 238 269 259 254 251 172 204 159 177 194 167 153 131 128 82 128 143 119 128 115 95 110 94 127 152 157 156 153 153 155 157 157 158 158 157 155 153 152 152 148 145 146 148 149 150 149 146 146 147 147 147 146 145 143 142 142 143 147 149 144 144 147 143 139 133 127 124 124 124 126 124 122 122 124 121 119 117 115 112 110 106 103 102 103 108 113 117 118 116 116 117
162 149 156 155 248 224 250 272 264 242 244 169 199 156 180 180 169 157 117 120 74 125 138 131 136 106 92 122 100 120 165 165 156 153 154 155 157 158 158 159 159 156 154 153 151 149 148 151 152 150 151 151 149 150 152 150 146 145 144 141 143 146 149 151 151 145 145 147 144 142 135 129 126 124 126 128 126 123 123 123 121 119 118 116 114 111 107 104 103 104 106 110 114 115 114 116 115
168 154 167 204 271 290 266 276 265 234 244 153 224 163 173 172 168 151 110 96 111 131 138 150 157 97 103 101 97 133 157 165 156 152 155 156 157 158 159 160 160 157 154 154 153 152 153 155 154 152 154 153 153 156 157 153 148 147 146 145 148 151 152 151 149 146 146 149 149 146 138 131 128 128 129 128 127 125 124 123 123 122 121 119 116 113 109 106 105 105 104 105 105 105 108 114 115
174 182 195 276 352 316 284 273 256 251 335 339 282 152 149 160 156 131 115 119 141 146 153 162 156 114 114 98 106 148 158 161 155 153 157 157 158 159 160 160 160 157 155 155 156 155 155 157 156 154 155 154 157 163 162 155 150 150 149 150 153 155 154 151 150 149 149 151 151 148 139 132 130 131 129 128 129 128 127 126 125 125 124 122 118 115 112 109 107 107 104 102 100 99 102 109 114
169 205 236 295 241 277 270 275 271 302 23 342 348 123 132 140 131 111 114 126 142 143 144 148 135 118 115 100 117 148 157 157 156 155 157 158 159 161 159 159 160 158 156 157 157 158 157 158 157 156 157 159 166 168 164 156 150 151 153 155 156 156 154 153 152 152 151 150 151 149 142 135 135 134 130 130 131 130 129 128 127 126 124 120 119 119 118 113 109 109 106 103 101 98 99 103 107
169 191 154 211 228 224 240 265 292 304 54 55 72 90 122 134 126 118 121 122 128 132 139 140 139 127 112 107 128 144 152 156 158 155 157 160 161 161 160 159 160 159 158 158 159 159 158 159 158 160 165 170 174 170 162 155 151 153 157 159 158 156 156 156 154 154 154 151 150 149 145 138 138 138 134 132 129 127 128 129 128 126 123 120 122 123 121 114 110 109 106 104 101 99 101 102 104
200 181 130 229 208 191 251 253 292 289 66 34 90 111 131 131 125 132 121 120 124 138 156 148 143 130 107 125 136 145 150 157 158 156 159 161 161 161 161 160 160 162 161 161 162 162 162 162 164 168 173 176 172 163 157 152 152 156 157 159 158 157 156 156 154 154 154 151 148 147 144 138 138 141 136 130 124 125 128 130 131 128 126 123 122 122 122 118 113 111 107 105 101 100 101 104 107
205 216 153 253 246 219 251 230 278 270 31 31 106 135 138 115 122 128 118 120 100 141 154 151 145 124 120 133 141 151 155 158 157 158 162 160 161 162 163 163 163 164 164 165 165 166 166 167 170 172 172 168 162 157 155 154 155 156 156 157 156 155 154 152 150 152 151 148 147 146 143 137 139 143 139 133 126 127 132 134 133 132 129 124 123 123 123 119 114 112 110 107 102 100 102 104 105
213 232 159 248 305 268 241 211 254 171 71 131 151 149 119 88 128 124 122 133 110 136 136 149 146 122 150 156 156 162 160 157 157 161 161 160 163 165 166 166 166 167 168 170 170 169 168 168 169 168 166 161 158 157 156 156 157 157 155 154 153 154 152 148 147 149 149 148 147 145 143 139 139 142 143 139 129 130 136 136 136 136 133 129 127 125 123 120 116 115 114 110 104 103 104 105 105
223 231 60 273 276 270 251 197 208 162 107 151 162 153 101 88 136 124 133 145 132 138 139 153 158 169 166 163 161 163 157 154 160 163 161 163 167 168 170 169 169 171 172 172 171 168 166 167 167 164 163 160 158 157 156 156 156 156 154 151 150 152 148 145 146 148 149 149 150 148 147 145 143 142 144 141 131 135 140 138 139 139 137 134 129 127 126 126 122 120 117 112 109 108 107 106 106
226 229 216 270 257 237 240 203 200 150 142 154 167 170 124 111 143 130 139 142 130 138 151 161 208 198 162 160 162 157 151 157 165 165 162 165 168 170 172 172 172 174 174 173 170 167 167 167 168 166 164 162 159 156 156 156 155 156 152 147 148 150 147 147 149 150 151 152 153 153 154 153 147 145 146 143 138 139 140 136 138 139 137 135 132 133 134 133 128 123 120 115 111 109 108 106 106
211 206 191 233 239 213 233 206 152 126 145 161 170 175 142 136 149 138 136 128 118 122 134 136 130 156 156 158 156 150 153 164 169 167 165 166 170 172 172 173 174 176 175 172 170 168 169 170 170 168 165 163 159 155 156 156 155 155 150 148 150 150 150 151 152 153 155 155 157 158 158 156 150 150 149 146 144 142 141 138 138 137 137 136 136 140 140 137 130 124 122 118 114 111 108 107 108
202 179 196 230 216 226 246 168 136 128 160 157 155 162 149 150 151 147 146 120 121 118 123 123 122 139 149 152 151 152 161 167 171 172 169 168 172 173 172 174 176 177 175 172 171 171 172 172 171 169 167 164 159 156 158 157 155 155 153 153 153 153 154 154 156 156 156 157 159 160 159 156 153 151 150 148 147 147 144 142 140 138 137 136 137 139 140 138 132 128 124 119 117 114 108 105 107
206 207 246 243 229 263 268 175 147 147 156 146 140 153 149 150 150 152 153 124 130 142 143 139 136 141 147 152 154 159 165 168 172 175 174 172 174 174 175 175 176 177 175 174 172 172 174 172 172 171 169 167 162 160 160 158 158 158 157 157 156 156 155 155 156 156 155 156 158 159 160 158 157 153 151 150 152 152 147 144 143 140 136 131 131 133 137 137 134 130 123 118 114 110 105 102 104
193 202 225 245 221 244 248 199 137 147 153 142 139 145 146 153 155 157 151 133 153 180 161 155 150 149 151 157 160 163 166 169 173 177 177 176 176 177 178 177 177 177 175 175 173 173 175 173 173 172 170 170 166 164 162 161 160 160 159 159 158 156 154 154 154 154 153 154 156 159 163 161 159 157 154 155 156 154 148 145 142 138 132 127 128 128 130 129 123 119 117 116 110 105 101 100 103
204 220 233 253 263 256 237 190 138 146 148 139 143 145 150 157 160 163 159 153 199 184 167 161 158 156 156 160 162 165 168 171 174 178 179 178 177 179 180 178 177 177 176 176 174 174 175 174 174 173 172 171 168 167 166 164 163 162 161 159 156 153 154 154 152 153 152 154 157 159 162 160 159 156 155 155 153 150 145 143 141 137 134 131 129 126 124 122 116 113 112 113 111 108 105 104 105
240 249 239 247 248 253 221 175 153 151 149 151 158 151 149 151 155 168 171 177 177 178 170 162 163 160 159 162 164 166 170 174 177 180 181 180 179 180 180 180 179 177 176 177 176 174 175 176 176 175 173 171 168 169 170 167 165 163 161 157 154 152 154 154 152 152 152 153 156 158 159 157 157 155 153 152 148 146 144 143 143 141 141 140 138 132 128 125 122 118 112 112 113 117 116 112 112
236 260 251 246 238 237 215 180 172 166 161 162 157 149 156 160 154 168 182 190 170 174 168 158 162 162 161 164 166 169 172 175 178 182 185 183 182 181 181 180 179 177 176 178 178 175 176 177 177 178 174 171 169 171 172 168 165 163 161 156 153 154 154 154 152 151 151 150 150 154 159 158 159 156 151 150 148 147 146 146 147 146 147 147 146 141 136 132 127 122 115 116 119 122 122 116 113
230 246 257 252 239 228 207 182 175 174 168 160 154 154 168 167 150 160 184 183 173 173 164 155 159 163 164 167 168 170 174 176 179 183 184 185 184 182 183 182 179 179 179 180 180 178 178 178 179 179 174 171 170 171 171 168 165 162 159 156 154 157 157 155 154 153 153 151 147 147 152 156 157 154 151 150 149 149 148 148 148 149 150 150 149 146 143 138 131 124 120 122 124 126 125 119 112
222 236 252 253 244 215 192 177 171 170 168 159 153 151 161 158 143 145 184 179 178 175 164 158 160 166 168 170 171 172 176 178 180 183 184 184 184 185 185 184 182 181 180 181 183 181 179 180 179 178 174 171 171 170 171 169 164 160 159 157 156 158 159 158 157 157 156 152 148 146 147 151 154 152 151 151 152 151 150 149 149 152 152 152 152 151 150 147 140 132 128 128 128 128 126 120 111
248 254 265 267 257 208 181 173 167 161 166 165 152 134 144 155 150 148 187 179 179 172 167 165 164 169 171 171 174 175 179 181 182 184 184 183 185 187 187 186 185 183 182 183 184 182 180 181 179 176 174 173 171 169 170 169 163 159 158 158 157 158 159 159 158 158 158 153 150 151 150 151 155 156 155 157 158 156 154 154 155 156 156 157 158 159 159 158 152 143 140 136 133 132 125 117 106
288 283 286 282 252 188 172 167 163 153 166 172 142 110 129 158 178 185 176 176 176 169 169 172 168 170 172 172 177 180 182 183 184 185 186 187 186 188 190 190 186 183 185 185 184 182 182 182 179 176 175 174 173 170 170 168 162 158 157 158 158 158 159 159 159 159 158 155 155 159 158 157 159 163 164 165 165 163 161 160 160 160 161 163 165 167 167 165 158 150 150 148 143 140 131 126 113
301 286 297 317 82 155 167 157 161 157 165 167 137 100 159 197 216 175 172 172 172 170 171 174 171 172 174 175 179 183 184 184 185 189 191 190 189 190 193 192 186 184 186 187 184 183 185 185 181 177 175 175 174 171 171 168 162 159 157 158 160 161 160 159 161 161 160 160 162 166 166 165 166 170 173 172 172 170 168 166 165 163 164 167 170 173 174 170 165 160 160 160 155 143 124 149 161
291 269 148 93 47 136 178 149 161 165 162 168 152 94 213 209 198 173 173 171 166 171 174 175 175 176 177 180 182 184 185 185 187 191 193 193 194 195 195 194 190 187 187 189 187 186 187 187 185 180 176 175 175 173 171 169 165 162 160 161 165 166 164 163 165 166 166 165 169 174 172 169 169 175 178 177 176 174 172 173 173 172 174 177 176 178 179 178 176 171 168 170 174 169 140 203 194
277 258 51 122 109 202 188 156 165 163 169 177 172 332 220 202 190 175 172 170 166 171 177 178 179 181 183 186 185 184 186 188 190 192 194 195 197 198 198 197 193 191 190 191 190 188 188 189 188 183 177 176 177 175 172 171 170 165 163 165 165 166 165 166 168 169 171 171 177 184 183 176 173 175 179 182 183 180 180 186 186 185 186 187 186 184 184 185 185 180 177 186 199 209 234 214 186
343 250 320 16 196 202 183 177 182 168 166 185 191 325 232 189 175 172 170 171 170 174 179 182 183 186 191 189 185 184 186 190 192 193 195 196 198 200 201 200 196 193 193 193 192 191 189 190 191 186 180 178 179 177 174 175 176 170 167 167 165 164 164 163 164 166 170 176 183 191 194 186 178 177 179 183 186 186 188 193 197 196 194 193 194 194 191 190 190 186 187 193 194 200 211 183 157
357 132 249 234 200 194 163 191 207 196 136 190 208 268 245 165 166 171 172 174 174 176 181 184 188 192 194 191 185 183 185 187 191 194 195 196 198 201 204 204 200 194 195 196 194 192 190 190 192 189 183 182 181 178 177 180 180 175 171 169 168 167 167 163 161 165 171 178 184 191 195 191 184 182 182 184 186 188 190 193 199 200 193 192 194 196 194 193 190 185 190 192 187 187 193 187 157
325 357 270 254 168 159 161 173 209 217 148 197 213 233 249 181 164 171 177 180 177 178 184 186 190 194 194 191 186 184 184 186 190 194 196 196 198 203 206 206 202 196 197 198 196 194 191 189 192 191 187 186 184 180 181 184 182 179 176 173 173 174 172 171 172 178 182 185 186 188 193 194 191 187 186 188 189 190 189 190 196 196 190 188 191 195 195 196 190 184 189 192 191 188 185 191 188
209 203 27 307 341 133 180 165 188 198 218 217 207 225 242 218 161 174 180 182 181 184 187 187 189 193 193 190 187 187 187 188 191 194 197 198 199 203 206 206 204 200 198 200 200 197 193 191 192 191 190 190 188 184 184 184 182 181 181 179 181 183 181 183 187 192 197 195 191 193 198 198 197 194 192 193 193 192 189 188 193 197 198 193 192 197 199 199 193 189 193 196 199 198 191 194 203
168 175 149 262 310 284 216 234 189 184 201 224 206 217 228 210 171 178 181 183 186 190 190 189 190 192 193 191 190 189 190 192 193 194 198 199 201 203 205 206 205 202 199 200 201 200 197 193 192 192 192 192 191 188 186 183 181 183 186 186 187 188 187 191 194 198 206 202 196 199 203 200 197 198 197 196 196 195 194 196 195 197 202 198 196 200 201 199 195 195 198 200 204 203 199 201 205
207 265 270 267 282 276 237 246 205 181 194 227 214 218 220 204 187 180 180 183 189 192 191 192 192 191 193 193 192 191 192 194 193 194 198 199 201 203 205 206 205 203 200 199 200 202 199 195 194 194 194 195 193 191 189 186 184 187 191 191 190 189 189 193 195 199 206 200 196 200 204 202 197 199 199 196 199 199 198 200 195 195 200 198 196 198 200 198 197 198 198 199 201 198 195 200 209
253 261 276 288 251 263 267 257 220 180 193 237 223 227 229 203 191 182 178 184 195 193 189 192 193 192 193 194 194 193 193 193 193 195 197 198 200 201 203 205 205 203 201 200 201 202 201 198 198 197 196 196 196 195 194 191 189 191 196 195 192 190 190 193 194 195 200 196 195 198 201 205 202 200 198 196 201 201 199 199 196 195 198 198 198 199 199 195 194 195 194 194 196 191 187 194 201
250 246 258 278 238 282 293 279 258 183 195 255 218 222 241 178 181 188 186 193 200 197 193 194 193 192 193 195 195 194 192 192 193 194 196 198 200 200 202 204 205 205 203 201 201 203 202 201 201 200 199 199 198 198 197 196 194 194 198 199 195 193 191 192 191 188 189 189 193 198 202 208 207 204 199 197 202 200 197 197 196 197 199 201 204 206 204 200 196 195 193 194 196 194 189 191 188
245 232 237 250 185 88 284 291 320 165 185 278 157 186 223 149 172 201 199 201 203 202 203 200 196 196 196 196 195 194 192 192 192 193 194 196 199 200 201 202 204 205 204 202 201 203 203 203 203 202 202 202 201 200 199 200 198 195 198 201 199 198 195 192 193 194 193 189 192 200 204 208 210 207 203 202 204 201 197 193 196 201 200 203 204 202 205 204 200 198 196 195 198 199 197 197 197
252 230 228 229 173 179 224 281 346 39 305 314 107 88 291 176 180 204 198 202 207 206 207 205 203 203 201 200 198 198 196 194 194 194 194 195 198 201 202 202 202 204 205 203 201 202 204 205 205 204 204 205 204 202 200 200 200 197 195 198 200 203 203 199 200 202 201 200 200 203 204 208 212 209 207 208 207 203 196 192 198 200 198 201 200 195 198 200 196 195 195 196 201 206 208 209 210
274 241 222 212 200 218 231 265 332 344 282 251 133 87 287 207 187 195 177 192 206 203 206 209 207 205 203 202 201 201 201 198 197 197 197 197 199 201 202 202 202 203 206 206 203 203 205 207 207 205 205 206 207 206 202 200 201 198 194 195 198 201 205 204 202 203 203 203 205 206 207 209 212 210 209 209 207 203 198 195 199 199 197 198 197 196 198 198 197 196 195 198 204 210 215 218 219
269 240 201 196 205 229 244 235 187 219 255 243 175 186 265 283 207 194 175 191 201 200 210 213 210 206 204 204 202 202 202 201 200 200 200 200 201 201 201 201 202 203 206 207 206 205 206 207 207 206 206 208 209 208 205 202 202 200 196 196 199 202 207 206 204 204 205 205 206 209 212 212 212 211 210 207 203 201 197 197 199 197 195 197 199 199 196 195 198 201 200 200 205 211 217 220 220
251 224 156 169 196 219 236 216 192 219 241 335 188 159 177 299 238 185 171 188 200 208 217 214 211 209 205 205 204 203 203 202 201 200 201 201 202 202 202 202 203 204 206 207 206 207 208 208 208 208 208 210 211 210 208 205 203 203 199 199 201 205 210 210 207 206 206 207 208 211 214 215 214 213 210 206 203 200 195 195 197 195 194 196 200 196 189 192 197 202 203 201 203 210 214 214 214
251 232 161 169 190 205 217 196 197 214 119 52 260 143 128 279 277 159 167 188 205 216 220 213 209 209 207 206 205 205 205 205 203 202 202 202 204 205 204 204 204 205 206 207 207 208 208 210 210 210 210 211 213 212 210 208 206 206 204 202 203 206 211 212 210 208 208 210 212 214 216 216 215 213 211 207 205 204 199 195 196 198 198 198 200 195 188 190 193 197 202 201 201 203 207 210 213
247 233 199 206 182 195 196 154 153 119 107 214 220 182 178 267 286 148 167 198 216 221 221 214 209 207 207 207 206 206 206 205 205 204 204 204 205 206 206 205 204 205 206 207 208 209 209 210 210 211 212 213 214 214 212 211 209 208 208 207 206 206 208 211 212 212 211 213 216 217 216 214 213 212 212 209 207 207 204 199 197 200 203 201 198 196 189 184 184 188 197 203 206 206 207 212 214
236 186 217 235 110 82 72 76 99 108 228 242 215 195 190 251 277 182 178 204 212 219 220 209 208 207 206 207 206 205 206 205 205 205 205 205 206 207 206 205 205 205 206 206 207 209 210 210 211 213 214 214 215 215 214 213 211 211 212 211 210 208 208 210 212 213 212 213 215 215 213 212 212 212 212 213 211 210 208 206 201 200 206 207 201 198 192 183 177 180 196 205 209 212 209 209 213
217 172 136 265 322 38 47 2 56 132 251 259 216 187 172 226 263 223 210 216 211 214 215 203 204 205 204 205 205 204 205 205 205 204 205 205 205 207 206 205 205 204 204 205 207 209 210 211 212 213 214 215 216 217 216 214 213 213 214 214 213 211 210 211 213 215 215 213 212 211 211 212 211 210 212 214 215 213 211 210 208 203 205 211 209 203 196 187 179 181 195 206 209 211 209 210 215
168 170 122 156 286 11 145 287 187 181 249 258 182 135 145 240 252 230 223 229 224 218 217 208 204 204 204 204 203 204 204 204 205 204 204 204 204 205 205 205 204 204 204 205 206 208 210 211 212 213 215 215 216 217 218 216 214 214 215 215 215 212 211 213 216 218 218 216 214 211 210 212 212 210 211 213 215 216 215 213 213 209 206 210 214 210 202 194 191 191 193 203 211 213 213 214 219
154 172 143 166 175 119 207 237 214 206 251 262 197 149 206 266 268 231 217 227 226 220 218 213 209 206 205 205 203 203 204 204 205 205 204 204 203 204 205 205 204 204 205 205 206 208 210 211 212 214 216 216 216 217 218 218 216 216 215 215 215 213 212 214 218 220 221 221 218 216 215 216 214 213 213 213 214 217 219 217 215 215 212 212 216 218 214 206 202 199 199 206 214 221 223 220 220
254 187 146 153 164 152 196 206 177 201 240 280 260 186 178 204 252 245 236 245 237 227 223 216 213 211 207 205 203 203 204 205 206 206 205 205 204 204 205 205 205 205 206 206 206 208 210 211 213 214 216 217 217 217 218 220 219 217 216 216 215 214 213 215 218 220 223 224 222 221 220 220 220 218 215 215 215 217 220 219 217 218 218 217 218 223 224 219 213 207 207 211 214 224 232 225 223
267 175 123 119 186 163 153 184 178 171 153 358 213 212 208 213 268 343 330 303 283 253 235 221 216 212 204 202 201 202 205 205 206 206 206 206 205 205 205 206 207 206 206 206 206 208 209 212 213 215 216 217 218 219 219 221 221 219 217 216 215 215 214 215 217 220 222 223 224 224 223 223 223 222 219 217 216 217 219 220 219 220 222 223 224 227 230 230 225 217 216 218 217 223 232 229 227
251 45 40 278 264 145 117 229 238 89 95 270 214 223 294 294 339 3 358 349 343 322 272 236 224 210 198 199 202 203 204 205 206 207 206 206 205 205 206 206 207 207 207 207 208 209 211 212 214 215 216 217 219 221 221 221 222 221 219 218 216 216 216 216 217 218 220 221 224 227 227 226 224 222 221 219 216 217 218 219 220 221 223 226 228 231 235 236 235 230 224 223 221 225 232 231 231
98 60 300 290 266 139 112 153 356 49 115 274 314 145 336 353 336 341 355 357 343 336 323 274 242 210 199 204 204 204 205 205 207 207 206 206 206 206 206 207 208 208 208 209 209 210 212 213 215 216 216 217 219 221 223 223 223 223 222 220 218 217 218 219 219 219 220 221 223 225 228 227 225 222 222 222 220 218 219 220 222 222 224 227 229 233 237 239 240 239 233 228 228 232 235 233 234
68 168 308 7 121 181 12 122 141 77 161 270 316 54 42 21 331 328 347 350 335 331 330 312 269 213 205 210 208 206 207 206 206 206 206 206 206 206 207 207 208 209 210 210 210 210 212 213 216 217 219 219 220 221 223 224 225 226 225 222 220 219 219 220 221 221 221 222 223 225 226 227 226 223 222 224 223 220 220 222 223 225 226 228 231 233 236 239 240 242 241 236 234 237 239 238 237
18 43 10 15 123 176 305 181 154 137 163 212 296 15 30 290 296 319 326 334 338 335 331 327 301 236 213 211 210 206 206 206 206 206 206 206 206 207 207 207 208 209 210 210 210 210 212 213 215 217 219 220 221 222 223 225 226 227 228 227 223 221 221 222 223 223 223 223 224 225 226 226 225 224 222 222 222 220 222 224 226 229 229 230 232 233 233 235 238 242 245 244 242 242 244 243 242
13 33 28 6 345 351 298 250 111 117 145 175 144 65 293 253 282 325 321 335 347 344 337 332 324 282 227 214 210 205 205 206 207 207 207 207 206 206 207 207 207 208 209 209 210 211 212 213 214 216 218 219 221 222 224 225 227 228 229 230 228 225 223 223 223 224 225 226 226 227 228 227 226 226 225 223 222 222 224 228 230 231 232 233 234 233 233 233 235 239 243 245 246 246 248 249 249
65 56 33 11 357 20 39 326 342 28 81 174 151 134 261 256 345 336 327 348 354 355 355 345 345 338 271 224 213 207 206 207 208 208 207 207 206 205 205 206 206 207 208 209 210 211 212 213 214 216 217 219 221 222 224 226 227 228 230 231 231 229 227 225 224 224 226 228 228 229 230 229 228 229 229 228 227 226 227 230 232 234 236 237 238 236 235 234 236 238 241 244 246 247 249 251 252